This is the latest recevied weather packets stored in our database for station/object KJ6HT. If no packets are shown the sender has not sent any weather packets the latest 10 day(s).
| Time | Temp. | Humidity | Pressure | Rain* | Wind** | Luminosity | Snow |
|---|---|---|---|---|---|---|---|
| 1788513347 | 16.67° C | 87% | 1011 hPa | 0 mm | - | - | - |
| 1788512416 | 17.22° C | 88% | 1011 hPa | 0 mm | - | - | - |
| 1788511514 | 17.22° C | 87% | 1011 hPa | 0 mm | - | - | - |
| 1788510627 | 17.22° C | 86% | 1011.1 hPa | 0 mm | - | - | - |
| 1788509711 | 17.78° C | 85% | 1011.2 hPa | 0 mm | - | - | - |
| 1788508808 | 18.33° C | 85% | 1011.1 hPa | 0 mm | - | - | - |
| 1788507906 | 18.33° C | 84% | 1011.1 hPa | 0 mm | - | - | - |
| 1788507006 | 18.33° C | 84% | 1011 hPa | 0 mm | - | - | - |
| 1788506104 | 18.33° C | 83% | 1011 hPa | 0 mm | - | - | - |
| 1788505202 | 18.33° C | 83% | 1011 hPa | 0 mm | - | - | - |
| 1788504365 | 18.89° C | 81% | 1011.1 hPa | 0 mm | - | - | - |
| 1788503402 | 18.89° C | 81% | 1011 hPa | 0 mm | - | - | - |
| 1788502560 | 19.44° C | 80% | 1011 hPa | 0 mm | - | - | - |
| 1788501674 | 20° C | 78% | 1011 hPa | 0 mm | - | - | - |
| 1788500793 | 20.56° C | 75% | 1011.1 hPa | 0 mm | - | - | - |
| 1788499859 | 20° C | 78% | 1011 hPa | 0 mm | - | - | - |
| 1788498957 | 20° C | 77% | 1011.1 hPa | 0 mm | - | - | - |
| 1788498057 | 20° C | 77% | 1011.1 hPa | 0 mm | - | - | - |
| 1788497157 | 20.56° C | 76% | 1010.9 hPa | 0 mm | - | - | - |
| 1788496263 | 20.56° C | 75% | 1010.7 hPa | 0 mm | - | - | - |
| 1788495364 | 20.56° C | 74% | 1010.7 hPa | 0 mm | - | - | - |
| 1788494456 | 21.11° C | 73% | 1010.5 hPa | 0 mm | - | - | - |
| 1788493556 | 21.11° C | 72% | 1010.3 hPa | 0 mm | - | - | - |
| 1788492654 | 21.67° C | 71% | 1010.1 hPa | 0 mm | - | - | - |
| 1788491761 | 21.67° C | 69% | 1009.8 hPa | 0 mm | - | - | - |
* Rain latest hour (hover to see other rain measurements)
** Current wind speed in m/s (hover to see current wind gust speed)